Simultaneous Nadir Overpasses (SNOs) Predictions

Prediction of SNOs between METOP-C and LANDSAT-8 Satellite Orbit:

Table of predicted SNOs for the next 14.0 days since TLE Epoch: 5/28/2022
Index Date (METOP-C) Time (METOP-C) Lat,Lon (METOP-C) SZA (METOP-C ) Date (LANDSAT-8) Time (LANDSAT-8) Lat,Lon (LANDSAT-8) SZA (LANDSAT-8 ) Distance(km) Time Diff (sec)
1 05/30/2022 21:30:54 -81.15, 77.59 118.46 05/30/2022 21:31:53 -81.15, 77.55 118.44 0.65 59
2 05/30/2022 22:21:33 81.17,-114.48 61.62 05/30/2022 22:21:18 81.18,-114.34 61.63 2.59 15
3 06/02/2022 17:05:12 -81.16, 144.08 118.84 06/02/2022 17:06:10 -81.15, 143.93 118.83 2.65 58
4 06/02/2022 17:55:51 81.17, -48.07 61.23 06/02/2022 17:55:35 81.18, -47.99 61.23 1.50 16
5 06/05/2022 12:39:31 -81.16,-149.48 119.17 06/05/2022 12:40:27 -81.16,-149.44 119.14 0.86 56
6 06/05/2022 13:30:09 81.18, 18.67 60.93 06/05/2022 13:29:52 81.19, 18.62 60.92 0.97 17
7 06/08/2022 08:13:51 -81.14, -83.48 119.52 06/08/2022 08:14:45 -81.14, -83.30 119.48 3.01 54
8 06/08/2022 09:04:29 81.17, 84.59 60.58 06/08/2022 09:04:10 81.17, 84.73 60.58 2.38 19



Historial Predications of SNOs between METOP-C and LANDSAT-8
